Theta_e
307 319 319 322 327 326 325 325 323 324 324 324 325 327 329 332 334 344 345 346 346 346 343 335 338 337 335 338 339 339 339 338 337 340 338 339 338 336 334 335 335 334 329 338 338 337 322 328 329
322 321 320 320 324 325 323 321 322 323 323 324 326 326 326 330 337 339 345 345 346 347 344 336 337 337 334 338 338 339 339 338 336 339 339 339 338 336 335 333 333 328 335 338 337 335 326 321 321
317 321 320 319 319 321 321 321 321 321 322 323 325 325 326 328 334 342 340 335 344 346 346 334 336 336 337 338 338 339 339 338 336 337 339 337 338 335 333 331 327 326 334 336 334 332 320 318 323
319 320 320 320 317 317 319 319 319 319 319 324 325 324 324 325 328 339 341 342 343 346 347 334 334 336 338 338 338 338 337 335 334 337 339 336 338 335 330 332 330 328 331 332 325 319 317 316 315
317 318 320 318 316 316 316 317 316 316 317 321 325 324 324 324 332 342 339 344 345 347 346 344 332 334 335 335 334 332 329 330 332 334 337 338 339 332 329 336 335 325 320 324 318 316 315 315 315
316 316 318 318 318 316 315 315 315 314 315 315 323 323 323 323 334 343 339 340 346 345 345 344 339 333 333 331 330 328 327 328 330 333 337 339 339 329 335 336 333 326 317 316 315 315 315 316 317
315 316 316 314 314 314 315 315 314 315 314 314 316 320 321 322 334 336 337 343 346 343 342 342 342 335 332 331 330 328 327 327 329 335 338 339 338 328 334 332 328 322 316 315 315 316 317 318 319
313 313 315 314 314 314 314 314 314 314 314 315 315 315 320 322 324 333 343 341 345 338 342 343 343 339 336 333 328 325 331 331 330 336 339 339 332 330 333 332 324 317 315 315 316 317 319 319 319
311 313 314 313 313 312 312 312 312 312 313 314 314 314 315 321 325 326 337 339 340 341 342 343 342 342 337 333 325 327 334 333 335 337 339 338 326 332 333 330 323 317 315 316 317 319 319 319 319
311 311 312 311 310 310 311 311 311 311 311 312 313 313 314 315 322 324 326 330 338 340 338 342 341 341 337 335 328 332 334 333 337 339 339 336 321 333 332 330 325 318 317 318 319 320 320 320 319
311 312 311 311 311 311 311 311 310 310 310 312 313 315 315 315 316 321 326 326 333 337 335 342 340 340 338 337 334 334 335 336 338 338 339 324 322 333 332 330 330 319 319 320 321 322 323 323 322
310 310 310 310 310 309 309 309 309 310 310 310 310 311 313 314 316 318 322 324 327 335 335 333 338 338 339 337 337 337 337 337 338 338 337 321 330 332 331 330 323 320 321 322 322 324 329 331 331
308 308 308 308 307 308 308 307 308 308 308 309 309 310 311 313 314 316 324 323 323 331 330 334 330 331 336 336 335 339 338 338 338 337 329 327 331 332 331 329 324 323 322 322 323 327 330 330 329
306 306 306 306 307 306 307 308 308 308 308 308 309 309 310 311 312 316 318 323 321 321 326 333 330 330 328 339 335 339 339 339 338 336 328 328 333 331 332 330 325 325 330 326 328 330 328 329 329
306 305 305 305 305 306 306 306 306 306 306 307 308 309 309 310 312 314 315 318 321 321 321 327 331 331 327 330 334 340 339 337 337 335 329 328 333 331 333 329 325 330 332 331 329 328 328 327 328
306 306 306 305 305 306 306 306 306 306 307 307 307 308 309 309 311 312 316 318 317 321 320 321 328 332 329 333 335 336 337 336 336 332 329 330 332 332 334 331 331 332 332 331 327 326 326 327 326
306 305 305 305 305 304 304 305 307 306 307 308 309 309 309 309 310 314 317 318 317 319 319 319 327 332 328 332 334 334 335 336 333 333 329 331 332 333 330 331 333 333 330 328 326 323 323 328 329
304 304 304 304 303 303 303 304 306 307 308 310 310 310 309 310 310 314 316 317 319 320 318 319 326 333 329 331 330 332 334 335 332 330 329 326 332 332 333 333 333 331 327 325 322 321 325 328 329
306 305 305 304 304 303 303 304 305 306 308 310 311 311 310 310 310 312 317 317 317 317 317 319 325 333 331 330 329 329 330 330 329 329 331 330 332 332 332 331 329 327 323 321 319 321 325 329 331
304 304 303 303 304 305 306 308 307 308 308 311 312 313 312 310 312 315 316 317 317 316 317 322 325 331 329 331 329 328 328 329 328 328 331 332 332 331 328 328 327 323 322 320 322 324 326 328 329
304 304 304 305 305 306 306 307 308 308 309 312 313 314 314 315 316 317 317 317 317 316 317 323 325 331 334 331 330 328 327 327 328 329 329 331 330 327 327 326 323 322 323 323 325 328 329 329 332
305 305 306 308 308 309 309 311 312 310 310 312 313 314 315 315 316 316 317 318 318 319 321 325 326 327 334 332 330 328 327 327 326 327 326 327 327 326 326 325 325 321 325 326 328 330 330 331 334
307 308 308 309 309 311 310 314 312 311 310 311 313 314 315 315 316 316 317 317 319 324 326 323 328 330 330 328 332 332 331 330 326 325 326 325 327 326 324 326 322 323 327 327 329 328 328 329 331
308 310 310 309 309 312 311 314 316 314 314 314 314 315 316 318 318 318 317 318 323 327 325 325 323 323 328 333 333 331 333 332 331 330 329 330 328 329 329 327 326 327 327 327 327 328 329 330 328
310 310 314 313 313 313 314 311 314 311 310 311 316 316 317 317 318 318 319 318 326 327 326 326 325 326 326 328 334 331 333 328 330 331 331 331 330 330 330 328 326 327 327 327 328 329 327 323 322
308 311 315 316 319 317 315 317 313 311 313 314 314 316 314 314 315 318 319 320 328 325 329 328 328 327 329 328 330 332 331 331 330 330 331 330 328 326 323 324 327 328 328 329 329 326 325 324 323
311 315 312 315 315 316 316 313 311 309 308 312 316 314 314 313 315 317 321 324 329 326 325 325 324 327 324 328 328 331 332 331 333 331 329 329 326 323 325 328 329 329 329 328 325 325 323 323 322
311 312 316 316 318 319 317 315 314 311 309 314 315 314 313 313 318 322 321 330 329 325 325 325 323 324 322 326 327 326 328 328 329 330 331 330 329 328 330 330 328 329 326 324 324 323 322 322 327
313 314 313 315 315 319 317 316 312 311 311 315 314 313 313 313 314 323 327 330 329 325 323 325 326 325 325 326 325 326 325 324 325 327 328 329 328 329 328 327 327 326 324 324 324 323 322 328 327
311 314 313 317 317 317 315 315 311 312 311 312 313 312 313 313 314 319 329 329 329 328 328 327 327 328 328 326 325 325 321 322 323 324 325 324 325 327 328 327 326 325 325 323 323 323 322 324 324
Wind_Speed
2 5 4 3 3 5 10 9 9 15 13 32 28 16 11 15 5 3 17 12 15 15 19 30 31 29 27 25 24 23 21 18 17 18 18 18 19 17 17 16 17 17 23 19 18 17 19 19 19
5 3 3 5 4 8 9 14 16 13 23 24 16 13 12 7 4 11 16 11 16 16 15 30 31 30 28 26 25 23 21 19 17 18 19 19 18 16 18 16 15 19 21 19 19 17 18 19 20
4 3 7 4 5 13 5 11 11 17 24 25 14 13 13 6 9 5 7 8 19 19 15 29 30 30 28 27 25 24 22 20 18 19 20 19 18 18 18 17 16 23 20 19 19 18 19 20 20
3 5 6 6 13 16 19 18 19 16 25 13 15 3 14 17 18 10 10 10 19 22 20 26 30 29 28 26 25 24 23 21 20 21 20 18 18 21 20 21 20 19 21 18 18 19 18 19 18
6 7 7 10 18 17 16 20 22 12 18 15 16 12 16 15 14 6 8 21 23 26 25 17 29 29 28 26 25 24 23 23 23 22 21 22 20 21 25 22 21 19 19 18 17 18 18 17 17
8 5 7 13 17 17 15 24 22 19 23 28 15 13 18 25 10 8 11 17 24 27 24 18 26 28 29 27 25 24 25 25 24 24 24 23 22 22 26 22 21 19 19 19 18 18 17 18 18
11 8 11 15 15 16 12 18 12 13 18 23 27 10 23 32 13 16 15 20 24 25 22 20 25 27 28 27 26 25 26 27 27 26 26 24 23 23 27 22 23 21 20 19 19 18 18 17 17
15 6 17 15 14 18 15 22 24 23 15 25 31 7 13 24 13 10 14 22 27 20 22 23 28 30 30 28 26 26 26 28 28 28 28 24 22 23 26 23 23 22 21 21 20 18 17 16 16
10 6 11 15 16 16 21 18 23 26 26 24 31 32 32 16 10 6 16 21 28 27 26 26 27 32 32 29 28 27 29 28 29 29 28 25 25 26 25 24 24 23 22 21 20 18 16 15 16
7 8 13 13 15 13 18 19 19 21 24 24 26 39 35 30 17 13 13 17 29 30 31 28 29 33 35 30 31 33 31 32 32 32 28 27 28 27 27 25 23 24 22 21 19 17 15 13 14
9 14 14 20 25 25 20 19 21 20 18 24 23 29 25 30 28 24 17 20 24 31 36 35 32 32 34 31 34 36 35 35 34 31 29 28 31 27 26 26 23 24 22 21 19 17 14 12 10
16 21 22 24 26 22 17 24 22 25 27 30 32 30 31 30 25 24 30 25 24 24 32 37 33 34 33 34 34 38 38 39 37 34 28 27 33 30 28 27 25 24 21 20 18 16 12 11 4
15 15 23 23 25 25 24 23 21 28 34 32 34 37 37 34 35 26 21 26 23 26 21 31 34 39 28 37 37 39 40 40 39 32 30 27 32 31 28 28 27 24 20 18 17 12 9 12 10
18 23 23 24 25 27 22 21 23 27 31 37 35 40 38 35 36 28 25 19 19 24 20 29 30 29 52 31 39 41 42 41 37 31 30 28 29 32 30 26 27 23 15 13 14 12 11 11 9
17 14 13 18 24 22 27 22 23 33 42 34 36 40 42 38 35 31 31 35 23 26 25 13 25 38 39 40 42 42 44 40 34 32 31 31 31 32 30 30 25 23 18 16 17 15 12 11 10
15 14 13 14 17 23 23 22 22 36 33 35 38 41 39 42 38 36 33 31 43 33 26 32 24 37 37 31 35 39 39 36 32 35 37 38 34 28 25 28 22 20 22 17 17 16 13 11 11
8 11 17 20 17 17 16 17 15 33 30 33 37 39 38 39 39 35 27 29 27 42 32 31 29 45 44 29 31 32 37 40 34 37 39 38 33 25 24 28 26 25 24 21 19 16 15 13 10
6 9 13 17 16 18 22 20 17 27 26 23 31 32 36 36 39 30 28 26 29 38 27 29 24 53 54 39 35 34 35 36 35 33 30 40 31 32 31 30 30 26 24 21 18 16 13 9 8
13 16 20 20 17 19 20 23 21 22 21 24 30 38 32 34 38 31 24 24 31 31 24 25 28 42 49 46 43 38 38 34 34 37 31 39 34 36 34 30 29 26 24 21 17 15 15 14 12
13 15 22 22 17 15 15 22 22 19 20 23 25 20 25 31 31 26 24 26 33 27 25 20 29 48 42 50 48 46 44 38 37 40 39 37 38 36 35 31 29 26 22 19 17 15 14 12 10
15 16 20 20 22 19 19 24 24 23 26 22 22 22 18 17 19 22 24 25 27 27 25 25 37 35 49 53 51 43 41 38 37 35 40 40 36 36 34 30 27 24 21 20 17 16 14 11 9
17 14 18 19 13 9 2 10 7 9 13 11 16 23 18 19 25 24 27 21 26 25 21 20 34 32 46 44 47 44 45 41 38 39 36 38 33 34 32 28 27 25 23 19 18 16 14 13 11
12 11 12 14 11 8 13 6 5 4 10 12 6 15 13 18 21 23 21 20 23 24 24 26 22 38 30 39 41 43 42 39 38 39 36 39 34 32 33 30 28 26 24 20 18 18 16 13 11
14 15 15 10 5 5 15 7 1 3 4 11 8 12 11 11 19 20 20 18 20 23 26 30 31 28 36 31 41 45 43 41 41 40 41 38 36 33 33 32 26 24 23 21 18 16 15 12 10
5 7 3 2 3 4 5 5 1 10 8 11 4 3 4 2 7 14 17 21 21 25 26 27 26 23 31 37 34 41 43 40 38 43 42 41 39 36 34 30 29 25 22 19 16 14 14 12 13
8 4 3 4 1 2 7 3 4 14 8 2 3 6 10 7 4 13 17 22 28 30 25 35 15 16 25 50 29 40 36 37 36 36 37 38 40 36 34 32 27 23 21 19 18 17 13 14 16
5 3 6 4 4 2 2 5 4 11 10 11 10 16 14 13 4 9 17 26 34 35 30 24 16 18 10 33 36 26 29 28 33 31 31 29 32 31 31 27 25 23 21 21 16 14 15 13 21
6 6 2 1 4 3 2 2 6 9 8 9 10 14 17 18 12 9 19 26 37 29 27 22 14 13 9 25 20 14 10 14 17 25 28 27 27 29 28 28 23 25 22 18 15 8 11 21 23
4 5 2 3 1 3 3 4 10 9 11 13 13 20 19 22 26 14 20 34 35 32 30 28 21 22 18 17 13 15 17 8 19 19 21 21 24 27 30 29 24 24 19 13 11 12 17 22 21
5 5 4 4 6 2 2 4 10 11 13 18 19 23 26 35 30 26 32 33 33 26 22 19 14 19 20 23 19 22 21 15 16 15 24 19 24 28 31 31 27 23 20 18 15 21 30 28 25
Wind_Direction
244 38 330 267 246 225 239 235 249 271 269 238 257 257 250 290 336 224 159 134 177 206 181 178 180 180 176 174 172 172 169 168 166 163 158 155 149 142 135 137 126 133 127 117 120 124 122 123 120
134 240 222 256 232 230 241 239 252 248 266 280 287 262 291 275 356 134 126 127 159 221 199 182 182 184 181 178 176 175 173 172 171 171 164 160 156 148 140 141 139 137 133 128 126 125 125 123 121
151 227 246 197 232 229 281 246 237 236 253 252 263 270 286 276 228 158 165 182 183 212 215 190 183 185 185 182 180 176 177 178 175 176 168 164 162 154 144 148 144 146 144 138 136 136 131 123 122
240 209 267 255 238 231 249 284 292 302 301 258 214 275 269 267 267 233 186 145 183 203 206 202 185 186 189 187 184 180 181 180 179 179 173 171 164 158 154 152 149 147 150 145 139 131 124 123 120
225 250 237 226 244 261 278 286 311 307 305 289 229 248 255 252 227 225 166 165 190 191 201 207 190 188 191 192 191 187 184 183 182 183 180 169 165 163 157 155 154 154 152 149 140 133 129 125 122
219 228 238 234 248 253 254 261 272 283 287 291 271 246 254 257 263 207 197 175 198 197 200 199 198 193 192 194 196 192 188 186 185 183 179 170 172 165 161 163 164 157 153 150 144 139 133 128 125
248 242 243 256 264 267 265 269 267 261 267 273 279 244 246 256 245 245 226 174 199 209 198 190 199 198 193 195 199 195 191 188 187 182 178 172 175 166 166 169 169 162 156 151 145 140 135 131 127
243 256 261 263 269 268 278 293 292 287 278 264 272 277 261 242 263 233 209 198 197 208 202 191 194 204 196 196 198 196 191 188 185 183 178 176 173 165 168 170 167 161 157 151 146 142 138 134 128
253 244 250 254 259 280 289 287 284 284 283 268 265 271 269 272 266 275 227 227 211 208 202 196 199 206 202 197 194 192 189 186 184 182 180 177 171 165 170 172 167 162 158 154 149 145 140 137 132
221 240 247 263 279 288 290 291 297 293 286 273 261 270 269 279 275 284 280 271 228 217 214 204 208 209 203 197 188 190 187 188 186 180 182 178 172 165 172 171 168 163 160 155 150 145 139 133 129
227 246 272 284 293 296 296 294 291 284 277 277 277 268 273 277 274 273 276 288 248 230 223 208 209 198 197 199 187 189 187 187 184 181 186 176 167 169 171 171 165 165 164 158 153 146 136 127 125
251 250 252 263 276 289 290 293 283 281 274 277 284 283 277 278 290 270 252 278 281 224 223 226 211 187 193 199 195 190 185 187 183 186 183 172 163 173 173 176 174 169 168 165 157 149 139 125 182
264 266 271 277 276 276 276 271 273 269 275 277 277 275 274 269 274 283 249 246 284 251 253 225 228 222 227 200 195 196 189 188 185 184 167 179 170 175 180 179 175 172 170 171 160 153 164 155 144
290 291 287 285 286 285 285 272 270 261 262 261 263 269 268 263 263 271 266 250 290 287 273 220 231 222 237 204 198 193 190 189 184 182 162 184 180 180 181 181 177 164 158 176 157 169 189 157 178
280 277 281 272 269 266 260 258 252 262 260 263 261 255 261 261 257 259 257 255 257 284 278 254 230 223 230 240 197 189 186 190 184 182 174 177 183 184 187 181 173 155 173 191 183 182 181 177 168
286 279 275 268 264 259 248 254 255 251 252 250 252 256 251 253 256 253 253 259 244 263 285 278 250 224 221 254 187 189 191 180 181 187 180 180 175 186 193 179 168 173 182 190 176 185 174 187 198
250 261 271 284 281 279 269 281 276 251 250 257 243 244 247 241 249 241 249 254 251 243 260 280 269 214 205 194 180 188 194 185 184 191 190 183 172 179 176 174 180 183 186 186 186 185 187 185 201
272 293 287 281 288 295 290 285 277 280 280 270 267 244 234 239 241 244 248 236 229 236 255 275 277 195 194 173 180 173 174 189 183 186 196 188 181 181 176 179 184 191 186 183 185 187 184 198 209
257 260 271 280 292 287 279 281 276 263 250 263 246 242 224 236 235 237 246 233 231 235 248 252 246 173 167 176 185 182 184 179 182 179 183 171 184 188 185 185 190 189 186 188 190 190 193 196 202
281 283 275 284 283 289 296 289 287 276 273 245 254 248 232 225 218 216 221 226 230 231 243 246 225 203 191 176 178 183 183 181 184 185 180 179 187 188 189 187 189 186 183 188 193 197 191 192 206
269 261 272 271 293 285 281 280 266 256 257 225 235 240 246 227 227 217 217 224 225 225 238 242 211 209 186 184 184 180 180 181 182 181 188 186 191 188 182 185 187 184 187 195 191 193 192 191 209
273 260 269 277 276 272 68 293 312 244 230 220 213 220 232 242 225 221 220 220 227 217 229 220 207 232 187 189 186 180 172 176 182 182 185 181 188 187 181 184 189 191 192 196 190 196 195 193 206
258 304 267 278 267 290 267 263 294 274 226 219 207 243 243 228 228 215 217 225 227 212 192 196 193 195 166 189 189 182 179 183 184 183 182 180 187 190 186 191 194 193 195 197 194 201 205 205 216
280 277 267 248 246 242 254 199 220 308 326 308 221 230 236 221 208 217 210 218 223 188 178 184 184 208 221 213 196 189 184 183 181 184 184 183 187 187 189 193 194 193 192 197 199 206 214 215 216
220 298 269 141 202 253 109 110 280 313 305 293 208 81 75 92 216 224 228 214 197 176 187 191 195 208 219 218 203 193 194 195 191 194 190 188 189 191 193 194 193 194 194 197 198 207 195 215 242
288 226 331 295 272 66 184 359 318 349 34 114 40 69 69 61 180 209 212 198 186 167 162 179 152 134 203 215 247 188 192 198 193 194 194 194 197 194 193 194 194 194 191 192 180 181 214 238 265
331 324 303 271 236 78 21 340 263 9 8 338 82 60 45 43 69 185 177 184 178 176 172 176 158 158 334 204 218 192 193 189 188 185 195 194 196 195 191 189 190 190 183 177 182 211 229 245 250
237 300 290 326 345 75 336 336 354 350 351 357 49 43 37 27 55 130 171 173 173 164 158 156 156 166 198 188 197 150 166 169 193 191 187 190 190 188 189 183 178 181 180 191 195 195 218 247 257
326 314 327 244 168 12 354 24 9 18 351 28 37 36 29 29 37 89 156 158 161 148 158 164 144 159 173 195 180 175 157 159 207 190 187 184 196 189 182 182 182 183 186 208 200 214 242 251 242
223 254 343 4 10 347 85 50 8 38 31 29 28 29 32 38 39 58 125 126 147 154 159 147 169 190 196 186 182 173 148 155 190 205 204 212 211 199 199 193 194 198 217 245 259 229 226 242 239